• In Portugal
  • List of Countries
  • For 7 days
  • Water Temperature
  • Satellite Maps
  • Weather Map
  • Weather Widgets
  • user-avatar
    Login

    Hourly Weather Recife

    Today, 13 December, Wednesday

    Time Temperature Precipitation Wind Pressure Humidity
    00:00 +27°C° 0 mm 3 mps 757 mmHg 79%
    01:00 +27°C° 0 mm 3 mps 757 mmHg 80%
    02:00 +27°C° 0 mm 3 mps 757 mmHg 81%
    03:00 +27°C° 0 mm 3 mps 757 mmHg 81%
    04:00 +27°C° 0 mm 3 mps 756 mmHg 82%
    05:00 +27°C° 0.1 mm 4 mps 757 mmHg 80%
    06:00 +28°C° 0.1 mm 4 mps 757 mmHg 78%
    07:00 +28°C° 0.1 mm 4 mps 757 mmHg 76%
    08:00 +29°C° 0.1 mm 4 mps 757 mmHg 71%
    09:00 +30°C° 0.1 mm 5 mps 758 mmHg 65%
    10:00 +32°C° 0.1 mm 5 mps 758 mmHg 60%
    11:00 +33°C° 0.1 mm 5 mps 758 mmHg 57%
    12:00 +34°C° 0.1 mm 5 mps 758 mmHg 54%
    13:00 +34°C° 0.1 mm 5 mps 758 mmHg 51%
    14:00 +34°C° 0.1 mm 5 mps 757 mmHg 52%
    15:00 +34°C° 0.1 mm 5 mps 757 mmHg 54%
    16:00 +33°C° 0.1 mm 5 mps 757 mmHg 55%
    17:00 +32°C° 0 mm 4 mps 757 mmHg 60%
    18:00 +30°C° 0 mm 4 mps 757 mmHg 65%
    19:00 +29°C° 0 mm 4 mps 757 mmHg 70%
    20:00 +28°C° 0 mm 3 mps 758 mmHg 73%
    21:00 +28°C° 0 mm 3 mps 758 mmHg 75%
    22:00 +28°C° 0 mm 3 mps 759 mmHg 78%
    23:00 +27°C° 0.2 mm 3 mps 759 mmHg 79%

    Tomorrow, 14 December, Thursday

    Time Temperature Precipitation Wind Pressure Humidity
    00:00 +27°C° 0.2 mm 3 mps 759 mmHg 81%
    01:00 +27°C° 0.2 mm 3 mps 759 mmHg 82%
    02:00 +27°C° 0.1 mm 3 mps 758 mmHg 82%
    03:00 +27°C° 0.1 mm 3 mps 758 mmHg 83%
    04:00 +26°C° 0.1 mm 3 mps 758 mmHg 83%
    05:00 +27°C° 0 mm 3 mps 758 mmHg 82%
    06:00 +27°C° 0 mm 4 mps 758 mmHg 80%
    07:00 +27°C° 0 mm 4 mps 758 mmHg 78%
    08:00 +29°C° 0 mm 4 mps 759 mmHg 71%
    09:00 +30°C° 0 mm 4 mps 759 mmHg 63%
    10:00 +33°C° 0 mm 5 mps 759 mmHg 56%
    11:00 +33°C° 0 mm 5 mps 759 mmHg 54%
    12:00 +34°C° 0 mm 5 mps 758 mmHg 52%
    13:00 +34°C° 0 mm 5 mps 758 mmHg 49%
    14:00 +34°C° 0 mm 5 mps 757 mmHg 51%
    15:00 +33°C° 0 mm 5 mps 757 mmHg 52%
    16:00 +33°C° 0 mm 5 mps 756 mmHg 54%
    17:00 +32°C° 0 mm 5 mps 757 mmHg 59%
    18:00 +30°C° 0 mm 4 mps 757 mmHg 64%
    19:00 +29°C° 0 mm 4 mps 757 mmHg 69%
    20:00 +28°C° 0 mm 4 mps 758 mmHg 72%
    21:00 +28°C° 0 mm 4 mps 758 mmHg 74%
    22:00 +28°C° 0 mm 4 mps 759 mmHg 76%
    23:00 +27°C° 0.2 mm 4 mps 759 mmHg 78%

    Day after tomorrow, 15 December, Friday

    Time Temperature Precipitation Wind Pressure Humidity
    00:00 +27°C° 0.2 mm 4 mps 758 mmHg 79%
    01:00 +27°C° 0.2 mm 4 mps 758 mmHg 81%
    02:00 +27°C° 0.3 mm 3 mps 758 mmHg 81%
    03:00 +27°C° 0.3 mm 3 mps 758 mmHg 81%
    04:00 +27°C° 0.3 mm 3 mps 757 mmHg 81%
    05:00 +27°C° 0.2 mm 3 mps 758 mmHg 80%
    06:00 +27°C° 0.2 mm 3 mps 758 mmHg 79%
    07:00 +27°C° 0.2 mm 3 mps 758 mmHg 78%
    08:00 +29°C° 0.2 mm 4 mps 758 mmHg 72%
    09:00 +30°C° 0.2 mm 4 mps 759 mmHg 66%
    10:00 +32°C° 0.2 mm 4 mps 759 mmHg 61%
    11:00 +32°C° 0.4 mm 4 mps 758 mmHg 59%
    12:00 +33°C° 0.4 mm 4 mps 758 mmHg 57%
    13:00 +33°C° 0.4 mm 4 mps 758 mmHg 55%
    14:00 +33°C° 0.2 mm 4 mps 757 mmHg 57%
    15:00 +32°C° 0.2 mm 4 mps 756 mmHg 58%
    16:00 +32°C° 0.2 mm 4 mps 756 mmHg 60%
    17:00 +30°C° 0 mm 4 mps 756 mmHg 64%
    18:00 +29°C° 0 mm 4 mps 756 mmHg 68%
    19:00 +28°C° 0 mm 4 mps 757 mmHg 72%
    20:00 +28°C° 0 mm 3 mps 757 mmHg 74%
    21:00 +28°C° 0 mm 3 mps 757 mmHg 76%
    22:00 +28°C° 0 mm 3 mps 758 mmHg 78%
    23:00 +27°C° 0.1 mm 3 mps 757 mmHg 79%

    16 December, Saturday

    Time Temperature Precipitation Wind Pressure Humidity
    00:00 +27°C° 0.1 mm 3 mps 757 mmHg 80%
    01:00 +27°C° 0.1 mm 2 mps 757 mmHg 81%
    02:00 +27°C° 0.2 mm 2 mps 756 mmHg 81%
    03:00 +27°C° 0.2 mm 2 mps 756 mmHg 82%
    04:00 +26°C° 0.2 mm 2 mps 756 mmHg 82%
    05:00 +27°C° 0.3 mm 2 mps 756 mmHg 81%
    06:00 +27°C° 0.3 mm 3 mps 757 mmHg 79%
    07:00 +27°C° 0.3 mm 3 mps 757 mmHg 78%
    08:00 +29°C° 0.1 mm 3 mps 757 mmHg 72%
    09:00 +30°C° 0.1 mm 4 mps 758 mmHg 65%
    10:00 +33°C° 0.1 mm 4 mps 758 mmHg 58%
    11:00 +33°C° 0 mm 4 mps 758 mmHg 57%
    12:00 +33°C° 0 mm 4 mps 757 mmHg 56%
    13:00 +34°C° 0 mm 4 mps 757 mmHg 55%
    14:00 +34°C° 0 mm 4 mps 756 mmHg 55%
    15:00 +33°C° 0 mm 4 mps 756 mmHg 55%
    16:00 +33°C° 0 mm 4 mps 756 mmHg 56%
    17:00 +32°C° 0 mm 4 mps 756 mmHg 61%
    18:00 +30°C° 0 mm 4 mps 756 mmHg 67%
    19:00 +29°C° 0 mm 4 mps 757 mmHg 73%
    20:00 +29°C° 0 mm 4 mps 757 mmHg 75%
    21:00 +28°C° 0 mm 4 mps 757 mmHg 77%
    22:00 +28°C° 0 mm 3 mps 758 mmHg 80%
    23:00 +28°C° 0.2 mm 3 mps 758 mmHg 81%

    17 December, Sunday

    Time Temperature Precipitation Wind Pressure Humidity
    00:00 +27°C° 0.2 mm 3 mps 757 mmHg 82%
    01:00 +27°C° 0.2 mm 3 mps 757 mmHg 84%
    02:00 +27°C° 0.3 mm 3 mps 757 mmHg 84%
    03:00 +27°C° 0.3 mm 3 mps 757 mmHg 84%
    04:00 +27°C° 0.3 mm 3 mps 756 mmHg 85%
    05:00 +27°C° 0 mm 3 mps 757 mmHg 83%
    06:00 +27°C° 0 mm 3 mps 757 mmHg 82%
    07:00 +28°C° 0 mm 3 mps 757 mmHg 80%
    08:00 +29°C° 0.1 mm 4 mps 758 mmHg 74%
    09:00 +30°C° 0.1 mm 4 mps 758 mmHg 69%
    10:00 +32°C° 0.1 mm 5 mps 758 mmHg 63%
    11:00 +33°C° 0.3 mm 5 mps 758 mmHg 61%
    12:00 +33°C° 0.3 mm 5 mps 758 mmHg 59%
    13:00 +34°C° 0.3 mm 6 mps 757 mmHg 57%
    14:00 +33°C° 0.3 mm 6 mps 757 mmHg 59%
    15:00 +33°C° 0.3 mm 5 mps 757 mmHg 60%
    16:00 +33°C° 0.3 mm 5 mps 757 mmHg 62%
    17:00 +32°C° 0.3 mm 5 mps 757 mmHg 67%
    18:00 +30°C° 0.3 mm 5 mps 758 mmHg 72%
    19:00 +29°C° 0.3 mm 4 mps 758 mmHg 77%
    20:00 +28°C° 0.2 mm 4 mps 758 mmHg 79%
    21:00 +28°C° 0.2 mm 4 mps 758 mmHg 80%
    22:00 +28°C° 0.2 mm 4 mps 759 mmHg 82%
    23:00 +28°C° 0.4 mm 4 mps 758 mmHg 82%

    18 December, Monday

    Time Temperature Precipitation Wind Pressure Humidity
    00:00 +28°C° 0.4 mm 4 mps 758 mmHg 83%
    01:00 +27°C° 0.4 mm 3 mps 758 mmHg 83%
    02:00 +27°C° 0.3 mm 3 mps 758 mmHg 83%
    03:00 +27°C° 0.3 mm 3 mps 757 mmHg 83%
    04:00 +27°C° 0.3 mm 3 mps 757 mmHg 83%
    05:00 +27°C° 0.2 mm 4 mps 758 mmHg 82%
    06:00 +28°C° 0.2 mm 4 mps 758 mmHg 81%
    07:00 +28°C° 0.2 mm 4 mps 758 mmHg 80%
    08:00 +29°C° 0.2 mm 5 mps 758 mmHg 75%
    09:00 +30°C° 0.2 mm 5 mps 758 mmHg 69%
    10:00 +32°C° 0.2 mm 5 mps 758 mmHg 64%
    11:00 +33°C° 0.2 mm 5 mps 758 mmHg 62%
    12:00 +33°C° 0.2 mm 5 mps 758 mmHg 60%
    13:00 +34°C° 0.2 mm 5 mps 758 mmHg 57%
    14:00 +33°C° 0 mm 5 mps 757 mmHg 58%
    15:00 +33°C° 0 mm 5 mps 757 mmHg 58%
    16:00 +33°C° 0 mm 5 mps 757 mmHg 59%
    17:00 +32°C° 0 mm 5 mps 757 mmHg 64%
    18:00 +30°C° 0 mm 5 mps 757 mmHg 68%
    19:00 +29°C° 0 mm 4 mps 758 mmHg 73%
    20:00 +29°C° 0.1 mm 4 mps 758 mmHg 74%
    21:00 +28°C° 0.1 mm 4 mps 758 mmHg 76%
    22:00 +28°C° 0.1 mm 4 mps 759 mmHg 77%
    23:00 +28°C° 0.1 mm 4 mps 758 mmHg 78%
    Show more